Tracking 30061 objects as of 9-Dec-2024
HD Live streaming from Space Station
objects crossing your sky now

STARLINK-6197

Track STARLINK-6197 now!
10-day predictions
STARLINK-6197 is classified as:


NORAD ID: 56767
Int'l Code: 2023-078A
Perigee: 577.3 km
Apogee: 581.1 km
Inclination: 70.0 °
Period: 96.1 minutes
Semi major axis: 6950 km
RCS: Unknown
Launch date: May 31, 2023
Source: United States (US)
Launch site: AIR FORCE WESTERN TEST RANGE (AFWTR)
Your satellite tracking list
Your tracking list is empty




NASA's NSSDC Master Catalog

Two Line Element Set (TLE):
1 56767U 23078A   24343.70454123  .00000262  00000-0  29776-4 0  9998
2 56767  70.0008  74.2121 0002668 269.9603  90.1251 14.98329227 84144
Source of the keplerian elements: AFSPC